Meadville, PA

8:35 AM EDT on March 23, 2017 (GMT -0400)
Port Meadville

Weather History for KGKJ - December, 2013

Change the Weather History Date:

Wednesday, December 4, 2013

  Actual Average Record
Temperature  
Mean Temperature 46 °F -  
Max Temperature 52 °F 40 °F 72 °F (1982)
Min Temperature 39 °F 24 °F -4 °F (1966)
Degree Days  
Heating Degree Days 20    
Moisture  
Dew Point 38 °F    
Average Humidity 74    
Maximum Humidity 83    
Minimum Humidity 61    
Precipitation  
Precipitation 0.00 in - - ()
Sea Level Pressure  
Sea Level Pressure 29.91 in    
Wind  
Wind Speed 2 mph (SE)    
Max Wind Speed 7 mph    
Max Gust Speed -    
Visibility 7 miles    
Events      
Averages and records for this station are not official NWS values.
T = Trace of Precipitation, MM = Missing Value Source: NWS Daily Summary

Daily Weather History Graph

Daily Weather History Graph

Search for Another Location

Airport or City:

Trip Planner

Search our weather history database for the weather conditions in past years. The results will help you decide how hot, cold, wet, or windy it might be!

Date:

Astronomy

Dec. 04, 2013 Rise Set
Actual Time 7:31 AM EST 4:50 PM EST
Civil Twilight 7:00 AM EST 5:21 PM EST
Nautical Twilight 6:25 AM EST 5:56 PM EST
Astronomical Twilight 5:52 AM EST 6:30 PM EST
Moon 8:57 AM EST (12/4) 6:59 PM EST (12/4)
Length of Visible Light 10h 21m
Length of Day
9h 19m
Waxing Crescent, 4% of the Moon is Illuminated
Dec 4
Waxing Crescent
Dec 9
First Quarter
Dec 17
Full
Dec 25
Last Quarter
Jan 1
New

Hourly Weather History & Observations

Time (EST) Temp. Windchill Dew Point Humidity Pressure Visibility Wind Dir Wind Speed Gust Speed Precip Events Conditions
12:53 AM 41.0 °F - 35.1 °F 79% 29.91 in 6.0 mi Calm Calm - N/A   Haze
1:53 AM 42.1 °F 40.2 °F 35.1 °F 76% 29.92 in 7.0 mi Variable 3.5 mph - N/A   Overcast
2:53 AM 42.1 °F - 35.1 °F 76% 29.94 in 7.0 mi Calm Calm - N/A   Overcast
3:53 AM 39.9 °F - 35.1 °F 83% 29.91 in 6.0 mi Calm Calm - N/A   Haze
4:53 AM 41.0 °F 39.0 °F 35.1 °F 79% 29.91 in 6.0 mi Variable 3.5 mph - N/A   Haze
5:01 AM 41.0 °F - 35.6 °F 81% 29.88 in 6.0 mi Calm Calm - N/A   Haze
5:30 AM 41.0 °F 39.0 °F 35.6 °F 81% 29.90 in 6.0 mi ESE 3.5 mph - N/A   Haze
5:53 AM 39.9 °F 37.8 °F 35.1 °F 83% 29.93 in 5.0 mi SE 3.5 mph - N/A   Haze
6:53 AM 39.9 °F - 35.1 °F 83% 29.96 in 5.0 mi Calm Calm - N/A   Haze
7:53 AM 42.1 °F 40.2 °F 35.1 °F 76% 29.97 in 6.0 mi Variable 3.5 mph - N/A   Haze
8:53 AM 39.9 °F 37.8 °F 35.1 °F 83% 29.98 in 3.0 mi ESE 3.5 mph - N/A   Haze
9:53 AM 44.1 °F 42.5 °F 36.0 °F 73% 29.98 in 4.0 mi ESE 3.5 mph - N/A   Haze
10:53 AM 48.0 °F - 37.0 °F 66% 29.97 in 6.0 mi SSE 4.6 mph - N/A   Haze
11:53 AM 50.0 °F - 37.9 °F 63% 29.95 in 8.0 mi Variable 4.6 mph - N/A   Clear
12:53 PM 52.0 °F - 39.0 °F 61% 29.93 in 8.0 mi Variable 3.5 mph - N/A   Clear
1:53 PM 52.0 °F - 39.0 °F 61% 29.90 in 8.0 mi Calm Calm - N/A   Clear
2:53 PM 51.1 °F - 39.9 °F 66% 29.88 in 7.0 mi Variable 3.5 mph - N/A   Clear
3:53 PM 51.1 °F - 39.9 °F 66% 29.90 in 7.0 mi Variable 3.5 mph - N/A   Clear
4:53 PM 50.0 °F - 41.0 °F 71% 29.89 in 8.0 mi Variable 4.6 mph - N/A   Clear
5:53 PM 50.0 °F - 42.1 °F 74% 29.89 in 9.0 mi Variable 5.8 mph - N/A   Clear
6:53 PM 50.0 °F - 42.1 °F 74% 29.88 in 9.0 mi Variable 3.5 mph - N/A   Partly Cloudy
7:53 PM 50.0 °F - 42.1 °F 74% 29.87 in 8.0 mi Variable 6.9 mph - N/A   Clear
8:53 PM 50.0 °F - 42.1 °F 74% 29.87 in 8.0 mi Variable 5.8 mph - N/A   Mostly Cloudy
9:53 PM 50.0 °F - 42.1 °F 74% 29.85 in 8.0 mi Variable 5.8 mph - N/A   Overcast
10:53 PM 50.0 °F - 42.1 °F 74% 29.85 in 8.0 mi Variable 4.6 mph - N/A   Overcast
11:53 PM 51.1 °F - 42.1 °F 71% 29.85 in 8.0 mi Variable 4.6 mph - N/A   Overcast